INMARSAT 3-F1

Last updated on Wed Sep 17 2025 00:02:45 GMT+0000 (Coordinated Universal Time)

1 23839U 96020A 25259.55530699 -.00000007 00000+0 00000+0 0 9993 2 23839 10.0274 49.0783 0008095 143.8990 184.7451 1.00001071107512
UTC large
Height (km)
Speed (km/s)
/
Latitude / Longitude
Inclination (degrees)
Orbital Period (minutes)
Azimuth
Elevation
Range (km)
Doppler Factor

Next 0 passes for location: London (51.5072 / 0.1276)

Sorry there are no passes over London.